H1 CPF 2 NER 2025 8 13 9 225 01 glonass146 H2 2216101 9146 54377 2025 8 13 0 0 0 2025 8 16 23 45 0 900 1 1 0 0 0 1 H9 10 0 60900 0.00000 0 -1118622.501 -18879056.836 17154249.384 10 0 60900 900.00000 0 -63394.178 -16906913.135 19131907.958 10 0 60900 1800.00000 0 1258520.991 -14835864.297 20739018.841 10 0 60900 2700.00000 0 2835864.641 -12731438.233 21944397.745 10 0 60900 3600.00000 0 4645016.109 -10657371.416 22724609.542 10 0 60900 4500.00000 0 6650742.724 -8673078.612 23064423.908 10 0 60900 5400.00000 0 8807444.667 -6831317.678 22957116.032 10 0 60900 6300.00000 0 11060844.774 -5176145.632 22404606.385 10 0 60900 7200.00000 0 13350055.116 -3741250.411 21417436.190 10 0 60900 8100.00000 0 15609936.409 -2548727.399 20014578.089 10 0 60900 9000.00000 0 17773653.802 -1608351.636 18223084.337 10 0 60900 9900.00000 0 19775323.825 -917376.269 16077577.886 10 0 60900 10800.00000 0 21552642.844 -460865.963 13619594.696 10 0 60900 11700.00000 0 23049387.456 -212551.650 10896788.612 10 0 60900 12600.00000 0 24217681.789 -136170.961 7962013.168 10 0 60900 13500.00000 0 25019935.897 -187237.960 4872297.423 10 0 60900 14400.00000 0 25430372.740 -315167.236 1687735.468 10 0 60900 15300.00000 0 25436078.259 -465661.973 -1529688.461 10 0 60900 16200.00000 0 25037529.115 -583263.884 -4717315.715 10 0 60900 17100.00000 0 24248574.802 -613955.617 -7813045.018 10 0 60900 18000.00000 0 23095874.188 -507703.682 -10756554.928 10 0 60900 18900.00000 0 21617809.917 -220832.309 -13490491.727 10 0 60900 19800.00000 0 19862926.527 281874.195 -15961598.233 10 0 60900 20700.00000 0 17887958.499 1025431.280 -18121760.337 10 0 60900 21600.00000 0 15755531.958 2023351.316 -19928950.031 10 0 60900 22500.00000 0 13531637.360 3276834.295 -21348046.122 10 0 60900 23400.00000 0 11282980.059 4774487.084 -22351516.530 10 0 60900 24300.00000 0 9074320.344 6492583.618 -22919949.194 10 0 60900 25200.00000 0 6965914.493 8395855.409 -23042421.855 10 0 60900 26100.00000 0 5011163.689 10438779.233 -22716704.284 10 0 60900 27000.00000 0 3254568.322 12567308.024 -21949289.962 10 0 60900 27900.00000 0 1730071.929 14720972.397 -20755257.495 10 0 60900 28800.00000 0 459862.351 16835264.844 -19157965.348 10 0 60900 29700.00000 0 -546321.809 18844206.943 -17188586.597 10 0 60900 30600.00000 0 -1291352.634 20682992.500 -14885493.369 10 0 60900 31500.00000 0 -1790337.820 22290596.446 -12293503.458 10 0 60900 32400.00000 0 -2069727.069 23612241.006 -9463004.124 10 0 60900 33300.00000 0 -2165939.585 24601616.678 -6448970.344 10 0 60900 34200.00000 0 -2123572.133 25222765.979 -3309896.774 10 0 60900 35100.00000 0 -1993264.549 25451552.018 -106664.216 10 0 60900 36000.00000 0 -1829313.614 25276651.443 3098637.496 10 0 60900 36900.00000 0 -1687136.508 24700031.045 6243907.452 10 0 60900 37800.00000 0 -1620691.049 23736888.894 9268229.613 10 0 60900 38700.00000 0 -1679961.479 22415063.013 12113044.026 10 0 60900 39600.00000 0 -1908615.582 20773932.616 14723271.261 10 0 60900 40500.00000 0 -2341931.590 18862857.772 17048369.091 10 0 60900 41400.00000 0 -3005082.022 16739222.227 19043301.895 10 0 60900 42300.00000 0 -3911846.707 14466160.266 20669404.940 10 0 60900 43200.00000 0 -5063809.504 12110061.312 21895127.739 10 0 60900 44100.00000 0 -6450073.321 9737954.830 22696642.900 10 0 60900 45000.00000 0 -8047506.687 7414883.011 23058309.137 10 0 60900 45900.00000 0 -9821513.325 5201369.094 22972979.745 10 0 60900 46800.00000 0 -11727294.631 3151085.338 22442150.331 10 0 60900 47700.00000 0 -13711554.525 1308816.651 21475942.353 10 0 60900 48600.00000 0 -15714577.681 -291196.133 20092921.790 10 0 60900 49500.00000 0 -17672596.386 -1626464.710 18319755.187 10 0 60900 50400.00000 0 -19520348.696 -2686963.165 16190708.237 10 0 60900 51300.00000 0 -21193722.076 -3475309.483 13746995.143 10 0 60900 52200.00000 0 -22632372.344 -4006410.859 11035989.913 10 0 60900 53100.00000 0 -23782208.050 -4306587.473 8110313.833 10 0 60900 54000.00000 0 -24597635.352 -4412211.488 5026816.071 10 0 60900 54900.00000 0 -25043467.966 -4367918.798 1845466.946 10 0 60900 55800.00000 0 -25096420.411 -4224469.535 -1371814.326 10 0 60900 56700.00000 0 -24746120.197 -4036348.666 -4562373.909 10 0 60900 57600.00000 0 -23995594.928 -3859209.504 -7664054.917 10 0 60900 58500.00000 0 -22861212.628 -3747269.959 -10616420.899 10 0 60900 59400.00000 0 -21372077.070 -3750773.581 -13361945.975 10 0 60900 60300.00000 0 -19568903.215 -3913624.742 -15847147.055 10 0 60900 61200.00000 0 -17502420.178 -4271299.812 -18023634.868 10 0 60900 62100.00000 0 -15231369.248 -4849124.176 -19849062.478 10 0 60900 63000.00000 0 -12820181.637 -5660989.163 -21287952.342 10 0 60900 63900.00000 0 -10336433.969 -6708563.908 -22312385.692 10 0 60900 64800.00000 0 -7848188.649 -7981035.900 -22902541.115 10 0 60900 65700.00000 0 -5421330.570 -9455391.429 -23047072.445 10 0 60900 66600.00000 0 -3117011.411 -11097224.087 -22743319.356 10 0 60900 67500.00000 0 -989307.662 -12862037.263 -21997347.512 10 0 60900 68400.00000 0 916810.908 -14696985.773 -20823818.365 10 0 60900 69300.00000 0 2567118.997 -16542983.351 -19245692.037 10 0 60900 70200.00000 0 3939313.235 -18337087.613 -17293769.804 10 0 60900 71100.00000 0 5023682.362 -20015062.546 -15006085.735 10 0 60900 72000.00000 0 5823244.404 -21514011.333 -12427159.801 10 0 60900 72900.00000 0 6353347.508 -22774969.550 -9607127.374 10 0 60900 73800.00000 0 6640753.457 -23745350.559 -6600762.252 10 0 60900 74700.00000 0 6722244.408 -24381141.231 -3466412.399 10 0 60900 75600.00000 0 6642813.164 -24648756.678 -264869.106 10 0 60900 76500.00000 0 6453514.486 -24526477.013 2941808.529 10 0 60900 77400.00000 0 6209068.876 -24005406.631 6091491.124 10 0 60900 78300.00000 0 5965320.300 -23089916.442 9123175.645 10 0 60900 79200.00000 0 5776655.154 -21797550.968 11978158.435 10 0 60900 80100.00000 0 5693491.118 -20158404.355 14601162.505 10 0 60900 81000.00000 0 5759941.365 -18213991.263 16941398.086 10 0 60900 81900.00000 0 6011752.180 -16015659.252 18953536.808 10 0 60900 82800.00000 0 6474600.517 -13622608.101 20598581.580 10 0 60900 83700.00000 0 7162823.120 -11099597.367 21844616.274 10 0 60900 84600.00000 0 8078631.004 -8514436.200 22667421.483 10 0 60900 85500.00000 0 9211843.105 -5935358.265 23050944.958 10 0 60901 0.00000 0 10540151.430 -3428389.467 22987617.873 10 0 60901 900.00000 0 12029909.083 -1054815.041 22478510.486 10 0 60901 1800.00000 0 13637408.306 1131146.703 21533323.801 10 0 60901 2700.00000 0 15310599.524 3084372.711 20170216.301 10 0 60901 3600.00000 0 16991179.750 4770478.497 18415467.812 10 0 60901 4500.00000 0 18616965.315 6167009.596 16302985.606 10 0 60901 5400.00000 0 20124450.749 7264131.263 13873660.775 10 0 60901 6300.00000 0 21451447.284 8064787.416 11174585.937 10 0 60901 7200.00000 0 22539690.308 8584321.926 8258148.355 10 0 60901 8100.00000 0 23337305.783 8849578.036 5181015.288 10 0 60901 9000.00000 0 23801030.811 8897513.831 2003031.039 10 0 60901 9900.00000 0 23898093.461 8773392.527 -1213952.642 10 0 60901 10800.00000 0 23607671.025 8528624.681 -4407289.309 10 0 60901 11700.00000 0 22921863.556 8218354.687 -7514769.109 10 0 60901 12600.00000 0 21846140.200 7898895.054 -10475843.194 10 0 60901 13500.00000 0 20399238.271 7625118.766 -13232816.027 10 0 60901 14400.00000 0 18612518.559 7447921.818 -15731980.953 10 0 60901 15300.00000 0 16528803.610 7411865.038 -17924675.693 10 0 60901 16200.00000 0 14200747.814 7553096.439 -19768236.334 10 0 60901 17100.00000 0 11688808.001 7897643.133 -21226830.746 10 0 60901 18000.00000 0 9058900.069 8460145.791 -22272155.056 10 0 60901 18900.00000 0 6379840.184 9243089.535 -22883979.891 10 0 60901 19800.00000 0 3720677.777 10236563.801 -23050536.346 10 0 60901 20700.00000 0 1148031.767 11418561.156 -22768734.897 10 0 60901 21600.00000 0 -1276459.228 12755802.167 -22044213.944 10 0 60901 22500.00000 0 -3498467.184 14205051.222 -20891217.947 10 0 60901 23400.00000 0 -5472989.509 15714867.591 -19332308.396 10 0 60901 24300.00000 0 -7165966.061 17227717.848 -17397914.019 10 0 60901 25200.00000 0 -8555432.878 18682360.697 -15125729.606 10 0 60901 26100.00000 0 -9632166.638 20016404.050 -12559975.657 10 0 60901 27000.00000 0 -10399795.266 21168927.072 -9750533.605 10 0 60901 27900.00000 0 -10874372.418 22083057.403 -6751973.680 10 0 60901 28800.00000 0 -11083435.861 22708395.733 -3622494.475 10 0 60901 29700.00000 0 -11064591.254 23003186.470 -422794.875 10 0 60901 30600.00000 0 -10863682.465 22936143.918 2785099.818 10 0 60901 31500.00000 0 -10532626.580 22487857.902 5939034.910 10 0 60901 32400.00000 0 -10127005.529 21651720.332 8977923.570 10 0 60901 33300.00000 0 -9703516.086 20434334.192 11842921.613 10 0 60901 34200.00000 0 -9317385.645 18855387.897 14478557.594 10 0 60901 35100.00000 0 -9019862.261 16947000.045 16833797.175 10 0 60901 36000.00000 0 -8855884.209 14752561.386 18863022.031 10 0 60901 36900.00000 0 -8862026.613 12325121.395 20526905.279 10 0 60901 37800.00000 0 -9064811.164 9725385.433 21793167.434 10 0 60901 38700.00000 0 -9479449.903 7019404.303 22637199.042 10 0 60901 39600.00000 0 -10109076.136 4276050.578 23042538.470 10 0 60901 40500.00000 0 -10944495.509 1564384.768 23001195.852 10 0 60901 41400.00000 0 -11964468.909 -1048981.052 22513816.767 10 0 60901 42300.00000 0 -13136516.869 -3502414.117 21589681.889 10 0 60901 43200.00000 0 -14418213.587 -5741582.511 20246541.722 10 0 60901 44100.00000 0 -15758918.147 -7721471.691 18510288.292 10 0 60901 45000.00000 0 -17101872.119 -9408012.559 16414468.776 10 0 60901 45900.00000 0 -18386576.889 -10779253.353 13999648.933 10 0 60901 46800.00000 0 -19551351.869 -11826026.337 11312637.278 10 0 60901 47700.00000 0 -20535966.370 -12552081.093 8405583.924 10 0 60901 48600.00000 0 -21284234.160 -12973678.606 5334970.797 10 0 60901 49500.00000 0 -21746460.586 -13118663.096 2160512.534 10 0 60901 50400.00000 0 -21881637.764 -13025050.794 -1056010.328 10 0 60901 51300.00000 0 -21659293.616 -12739195.719 -4251962.533 10 0 60901 52200.00000 0 -21060914.926 -12313610.756 -7365085.003 10 0 60901 53100.00000 0 -20080882.627 -11804537.371 -10334720.137 10 0 60901 54000.00000 0 -18726878.327 -11269368.248 -13103006.202 10 0 60901 54900.00000 0 -17019743.737 -10764033.494 -15616016.181 10 0 60901 55800.00000 0 -14992798.085 -10340462.621 -17824817.635 10 0 60901 56700.00000 0 -12690641.849 -10044231.088 -19686432.078 10 0 60901 57600.00000 0 -10167496.910 -9912492.046 -21164674.661 10 0 60901 58500.00000 0 -7485152.925 -9972281.462 -22230857.657 10 0 60901 59400.00000 0 -4710606.136 -10239268.553 -22864344.344 10 0 60901 60300.00000 0 -1913489.525 -10717004.249 -23052943.030 10 0 60901 61200.00000 0 836598.312 -11396699.037 -22793134.341 10 0 60901 62100.00000 0 3472754.410 -12257538.978 -22090128.225 10 0 60901 63000.00000 0 5933312.465 -13267525.937 -20957750.496 10 0 60901 63900.00000 0 8164158.724 -14384805.901 -19418161.974 10 0 60901 64800.00000 0 10120727.594 -15559428.860 -17501416.486 10 0 60901 65700.00000 0 11769595.517 -16735465.699 -15244866.926 10 0 60901 66600.00000 0 13089608.580 -17853392.670 -12692431.470 10 0 60901 67500.00000 0 14072498.975 -18852642.991 -9893734.583 10 0 60901 68400.00000 0 14722966.803 -19674218.275 -6903139.750 10 0 60901 69300.00000 0 15058225.993 -20263250.124 -3778692.936 10 0 60901 70200.00000 0 15107035.444 -20571404.479 -580997.348 10 0 60901 71100.00000 0 14908257.832 -20559028.044 2627958.720 10 0 60901 72000.00000 0 14509008.027 -20196946.992 5785998.314 10 0 60901 72900.00000 0 13962469.973 -19467842.750 8831953.639 10 0 60901 73800.00000 0 13325474.436 -18367147.358 11706842.504 10 0 60901 74700.00000 0 12655939.641 -16903420.892 14355001.195 10 0 60901 75600.00000 0 12010282.282 -15098194.846 16725152.601 10 0 60901 76500.00000 0 11440907.299 -12985287.421 18771389.836 10 0 60901 77400.00000 0 10993881.355 -10609618.355 20454057.224 10 0 60901 78300.00000 0 10706887.179 -8025571.352 21740512.524 10 0 60901 79200.00000 0 10607544.231 -5294970.689 22605756.460 10 0 60901 80100.00000 0 10712166.034 -2484754.299 23032917.891 10 0 60901 81000.00000 0 11025006.525 335561.923 23013585.499 10 0 60901 81900.00000 0 11538027.691 3096525.232 22547979.444 10 0 60901 82800.00000 0 12231199.268 5731384.633 21644959.103 10 0 60901 83700.00000 0 13073319.293 8178618.849 20321865.817 10 0 60901 84600.00000 0 14023322.662 10384249.744 18604202.471 10 0 60901 85500.00000 0 15032024.270 12303845.563 16525154.630 10 0 60902 0.00000 0 16044224.832 13904130.742 14124961.289 10 0 60902 900.00000 0 17001092.380 15164135.805 11450144.607 10 0 60902 1800.00000 0 17842718.406 16075836.917 8552615.784 10 0 60902 2700.00000 0 18510742.686 16644260.784 5488669.292 10 0 60902 3600.00000 0 18950934.144 16887047.952 2317887.857 10 0 60902 4500.00000 0 19115618.199 16833493.712 -898021.555 10 0 60902 5400.00000 0 18965846.430 16523107.049 -4096437.262 10 0 60902 6300.00000 0 18473215.110 16003749.027 -7215053.341 10 0 60902 7200.00000 0 17621253.895 15329430.183 -10193105.725 10 0 60902 8100.00000 0 16406324.242 14557861.248 -12972568.643 10 0 60902 9000.00000 0 14837988.124 13747862.216 -15499296.700 10 0 60902 9900.00000 0 12938830.287 12956740.787 -17724089.117 10 0 60902 10800.00000 0 10743740.730 12237752.369 -19603654.494 10 0 60902 11700.00000 0 8298687.080 11637750.112 -21101456.784 10 0 60902 12600.00000 0 5659028.230 11195124.971 -22188425.822 10 0 60902 13500.00000 0 2887439.925 10938123.078 -22843518.831 10 0 60902 14400.00000 0 51539.106 10883611.307 -23054122.495 10 0 60902 15300.00000 0 -2778693.689 11036342.598 -22816288.548 10 0 60902 16200.00000 0 -5533586.491 11388751.187 -22134799.181 10 0 60902 17100.00000 0 -8146431.679 11921285.403 -21023061.903 10 0 60902 18000.00000 0 -10556015.420 12603262.933 -19502836.820 10 0 60902 18900.00000 0 -12708916.502 13394211.507 -17603802.375 10 0 60902 19800.00000 0 -14561480.182 14245637.622 -15362968.662 10 0 60902 20700.00000 0 -16081386.447 15103148.084 -12823950.242 10 0 60902 21600.00000 0 -17248749.183 15908834.488 -10036112.965 10 0 60902 22500.00000 0 -18056702.420 16603819.915 -7053611.634 10 0 60902 23400.00000 0 -18511451.192 17130860.498 -3934337.397 10 0 60902 24300.00000 0 -18631786.927 17436892.368 -738795.377 10 0 60902 25200.00000 0 -18448089.470 17475416.982 2471065.727 10 0 60902 26100.00000 0 -18000859.169 17208624.722 5633049.460 10 0 60902 27000.00000 0 -17338841.791 16609167.704 8685909.953 10 0 60902 27900.00000 0 -16516825.792 15661507.494 11570530.020 10 0 60902 28800.00000 0 -15593204.801 14362781.138 14231056.732 10 0 60902 29700.00000 0 -14627407.644 12723148.944 16615973.265 10 0 60902 30600.00000 0 -13677303.425 10765608.836 18679087.166 10 0 60902 31500.00000 0 -12796689.968 8525284.099 20380416.797 10 0 60902 32400.00000 0 -12032970.255 6048212.884 21686959.778 10 0 60902 33300.00000 0 -11425113.598 3389688.242 22573329.324 10 0 60902 34200.00000 0 -11001986.485 612215.838 23022246.729 10 0 60902 35100.00000 0 -10781122.799 -2216827.830 23024880.750 10 0 60902 36000.00000 0 -10767985.056 -5027741.530 22581027.185 10 0 60902 36900.00000 0 -10955748.134 -7751145.922 21699124.645 10 0 60902 37800.00000 0 -11325615.406 -10320622.482 20396105.318 10 0 60902 38700.00000 0 -11847655.140 -12675236.386 18697082.386 10 0 60902 39600.00000 0 -12482123.299 -14761839.285 16634878.704 10 0 60902 40500.00000 0 -13181218.339 -16537056.444 14249404.422 10 0 60902 41400.00000 0 -13891195.181 -17968875.418 11586894.121 10 0 60902 42300.00000 0 -14554749.901 -19037769.479 8699017.175 10 0 60902 43200.00000 0 -15113574.729 -19737308.292 5641877.765 10 0 60902 44100.00000 0 -15510975.046 -20074229.707 2474923.602 10 0 60902 45000.00000 0 -15694436.890 -20067969.232 -740215.211 10 0 60902 45900.00000 0 -15618034.969 -19749666.883 -3940934.003 10 0 60902 46800.00000 0 -15244577.640 -19160693.514 -7064883.524 10 0 60902 47700.00000 0 -14547396.195 -18350759.420 -10051196.798 10 0 60902 48600.00000 0 -13511700.917 -17375686.039 -12841687.532 10 0 60902 49500.00000 0 -12135444.854 -16294936.118 -15381995.368 10 0 60902 50400.00000 0 -10429657.382 -15169007.994 -17622654.395 10 0 60902 51300.00000 0 -8418232.346 -14056805.376 -19520063.200 10 0 60902 52200.00000 0 -6137178.906 -13013094.740 -21037337.027 10 0 60902 53100.00000 0 -3633366.107 -12086158.420 -22145025.269 10 0 60902 54000.00000 0 -962813.589 -11315742.697 -22821680.532 10 0 60902 54900.00000 0 1811400.098 -10731387.250 -23054268.744 10 0 60902 55800.00000 0 4621524.139 -10351205.781 -22838413.048 10 0 60902 56700.00000 0 7397717.570 -10181168.206 -22178467.651 10 0 60902 57600.00000 0 10070719.465 -10214913.408 -21087421.066 10 0 60902 58500.00000 0 12574496.400 -10434099.021 -19586631.548 10 0 60902 59400.00000 0 14848757.694 -10809272.109 -17705400.618 10 0 60902 60300.00000 0 16841234.736 -11301222.717 -15480393.638 10 0 60902 61200.00000 0 18509630.715 -11862762.068 -12954919.218 10 0 60902 62100.00000 0 19823161.056 -12440849.551 -10178081.880 10 0 60902 63000.00000 0 20763622.057 -12978978.157 -7203824.662 10 0 60902 63900.00000 0 21325944.890 -13419717.364 -4089880.512 10 0 60902 64800.00000 0 21518213.710 -13707306.105 -896652.877 10 0 60902 65700.00000 0 21361148.830 -13790186.528 2313952.842 10 0 60902 66600.00000 0 20887078.174 -13623371.936 5479724.356 10 0 60902 67500.00000 0 20138441.358 -13170549.370 8539341.234 10 0 60902 68400.00000 0 19165890.027 -12405828.536 11433554.524 10 0 60902 69300.00000 0 18026064.583 -11315063.559 14106324.952 10 0 60902 70200.00000 0 16779140.617 -9896691.889 16505898.427 10 0 60902 71100.00000 0 15486247.584 -8162054.653 18585798.907 10 0 60902 72000.00000 0 14206867.328 -6135184.144 20305720.324 10 0 60902 72900.00000 0 12996320.579 -3852066.087 21632301.220 10 0 60902 73800.00000 0 11903445.797 -1359405.750 22539767.927 10 0 60902 74700.00000 0 10968566.712 1287052.587 23010434.386 10 0 60902 75600.00000 0 10221832.944 4024585.069 23035049.233 10 0 60902 76500.00000 0 9682002.826 6785843.203 22612983.335 10 0 60902 77400.00000 0 9355719.358 9501408.556 21752253.627 10 0 60902 78300.00000 0 9237309.989 12102442.956 20469381.917 10 0 60902 79200.00000 0 9309119.255 14523325.586 18789090.186 10 0 60902 80100.00000 0 9542361.183 16704168.296 16743836.847 10 0 60902 81000.00000 0 9898456.606 18593104.961 14373201.483 10 0 60902 81900.00000 0 10330799.929 20148259.484 11723128.539 10 0 60902 82800.00000 0 10786881.545 21339309.871 8845043.485 10 0 60902 83700.00000 0 11210676.547 22148582.327 5794857.792 10 0 60902 84600.00000 0 11545198.605 22571628.761 2631881.643 10 0 60902 85500.00000 0 11735110.240 22617262.789 -582334.288 10 0 60903 0.00000 0 11729277.853 22307052.251 -3785204.613 10 0 60903 900.00000 0 11483161.684 21674289.289 -6914339.805 10 0 60903 1800.00000 0 10960937.736 20762482.101 -9908772.023 10 0 60903 2700.00000 0 10137259.916 19623432.070 -12710156.602 10 0 60903 3600.00000 0 8998585.934 18314978.700 -15263920.162 10 0 60903 4500.00000 0 7544009.317 16898508.541 -17520333.388 10 0 60903 5400.00000 0 5785561.020 15436334.406 -19435486.404 10 0 60903 6300.00000 0 3747966.866 13989056.461 -20972147.154 10 0 60903 7200.00000 0 1467870.313 12613017.214 -22100485.859 10 0 60903 8100.00000 0 -1007447.251 11357957.993 -22798651.662 10 0 60903 9000.00000 0 -3621795.293 10264975.481 -23053190.739 10 0 60903 9900.00000 0 -6312179.729 9364863.760 -22859298.461 10 0 60903 10800.00000 0 -9011197.458 8676910.566 -22220901.601 10 0 60903 11700.00000 0 -11649620.072 8208197.003 -21150569.905 10 0 60903 12600.00000 0 -14159059.280 7953428.522 -19669259.626 10 0 60903 13500.00000 0 -16474603.499 7895302.540 -17805894.823 10 0 60903 14400.00000 0 -18537316.506 8005395.440 -15596795.197 10 0 60903 15300.00000 0 -20296494.996 8245530.014 -13084962.146 10 0 60903 16200.00000 0 -21711592.139 8569564.313 -10319237.300 10 0 60903 17100.00000 0 -22753728.321 8925525.381 -7353350.140 10 0 60903 18000.00000 0 -23406727.515 9257997.104 -4244873.415 10 0 60903 18900.00000 0 -23667637.564 9510660.897 -1054106.706 10 0 60903 19800.00000 0 -23546714.202 9628881.873 2157090.235 10 0 60903 20700.00000 0 -23066870.912 9562231.334 5326491.813 10 0 60903 21600.00000 0 -22262618.856 9266839.385 8392705.731 10 0 60903 22500.00000 0 -21178542.204 8707478.691 11296354.110 10 0 60903 23400.00000 0 -19867373.265 7859291.734 13981214.264 10 0 60903 24300.00000 0 -18387748.180 6709088.887 16395297.797 10 0 60903 25200.00000 0 -16801736.893 5256162.419 18491847.994 10 0 60903 26100.00000 0 -15172250.193 3512581.590 20230237.119 10 0 60903 27000.00000 0 -13560431.402 1502955.374 21576747.170 10 0 60903 27900.00000 0 -12023140.743 -736328.829 22505219.815 10 0 60903 28800.00000 0 -10610636.478 -3158360.579 22997563.491 10 0 60903 29700.00000 0 -9364548.755 -5707405.747 23044108.153 10 0 60903 30600.00000 0 -8316230.069 -8320981.368 22643800.740 10 0 60903 31500.00000 0 -7485550.868 -10932221.937 21804237.057 10 0 60903 32400.00000 0 -6880190.557 -13472440.793 20541528.626 10 0 60903 33300.00000 0 -6495453.790 -15873781.815 18880005.856 10 0 60903 34200.00000 0 -6314620.244 -18071852.267 16851761.894 10 0 60903 35100.00000 0 -6309813.797 -20008227.876 14496044.510 10 0 60903 36000.00000 0 -6443355.214 -21632725.837 11858506.361 10 0 60903 36900.00000 0 -6669541.891 -22905350.469 8990327.019 10 0 60903 37800.00000 0 -6936779.811 -23797829.443 5947222.950 10 0 60903 38700.00000 0 -7189977.502 -24294675.278 2788364.272 10 0 60903 39600.00000 0 -7373100.159 -24393726.598 -424780.508 10 0 60903 40500.00000 0 -7431774.754 -24106145.562 -3629648.764 10 0 60903 41400.00000 0 -7315834.351 -23455871.000 -6763812.595 10 0 60903 42300.00000 0 -6981692.089 -22478550.143 -9766207.041 10 0 60903 43200.00000 0 -6394442.376 -21219994.143 -12578332.316 10 0 60903 44100.00000 0 -5529598.456 -19734223.136 -15145405.269 10 0 60903 45000.00000 0 -4374391.063 -18081184.109 -17417436.370 10 0 60903 45900.00000 0 -2928571.792 -16324238.774 -19350210.295 10 0 60903 46800.00000 0 -1204686.040 -14527528.249 -20906150.419 10 0 60903 47700.00000 0 772196.841 -12753326.271 -22055050.165 10 0 60903 48600.00000 0 2965285.443 -11059492.768 -22774657.156 10 0 60903 49500.00000 0 5327366.950 -9497134.801 -23051099.286 10 0 60903 50400.00000 0 7802552.180 -8108572.732 -22879145.142 10 0 60903 51300.00000 0 10328392.099 -6925696.038 -22262294.592 10 0 60903 52200.00000 0 12838277.464 -5968776.410 -21212698.687 10 0 60903 53100.00000 0 15264021.546 -5245786.243 -19750911.330 10 0 60903 54000.00000 0 17538518.477 -4752249.168 -17905478.319 10 0 60903 54900.00000 0 19598366.846 -4471626.853 -15712372.448 10 0 60903 55800.00000 0 21386349.763 -4376223.820 -13214286.171 10 0 60903 56700.00000 0 22853668.842 -4428570.327 -10459796.006 10 0 60903 57600.00000 0 23961839.920 -4583223.537 -7502415.168 10 0 60903 58500.00000 0 24684172.579 -4788909.754 -4399553.067 10 0 60903 59400.00000 0 25006772.945 -4990916.533 -1211401.938 10 0 60903 60300.00000 0 24929029.183 -5133633.141 2000227.827 10 0 60903 61200.00000 0 24463560.593 -5163131.955 5173101.126 10 0 60903 62100.00000 0 23635633.582 -5029681.860 8245757.533 10 0 60903 63000.00000 0 22482069.744 -4690087.771 11158693.794 10 0 60903 63900.00000 0 21049692.303 -4109757.857 13855507.081 10 0 60903 64800.00000 0 19393376.067 -3264411.486 16283977.595 10 0 60903 65700.00000 0 17573782.187 -2141355.909 18397070.451 10 0 60903 66600.00000 0 15654871.855 -740277.613 20153838.320 10 0 60903 67500.00000 0 13701301.864 926485.684 21520208.299 10 0 60903 68400.00000 0 11775809.655 2834205.118 22469638.610 10 0 60903 69300.00000 0 9936695.770 4946543.620 22983632.957 10 0 60903 70200.00000 0 8235507.532 7216831.070 23052102.954 10 0 60903 71100.00000 0 6715019.553 9589780.774 22673571.503 10 0 60903 72000.00000 0 5407594.528 12003578.005 21855212.741 10 0 60903 72900.00000 0 4333992.287 14392255.842 20612726.937 10 0 60903 73800.00000 0 3502676.684 16688261.289 18970051.576 10 0 60903 74700.00000 0 2909649.478 18825106.191 16958912.843 10 0 60903 75600.00000 0 2538818.466 20739993.383 14618224.701 10 0 60903 76500.00000 0 2362884.838 22376308.811 11993345.775 10 0 60903 77400.00000 0 2344712.818 23685875.250 9135207.291 10 0 60903 78300.00000 0 2439124.032 24630872.598 6099328.100 10 0 60903 79200.00000 0 2595040.795 25185343.273 2944735.532 10 0 60903 80100.00000 0 2757887.184 25336218.280 -267186.863 10 0 60903 81000.00000 0 2872145.389 25083819.736 -3473901.719 10 0 60903 81900.00000 0 2883957.781 24441817.696 -6612946.052 10 0 60903 82800.00000 0 2743662.796 23436642.510 -9623160.070 10 0 60903 83700.00000 0 2408155.393 22106377.209 -12445891.236 10 0 60903 84600.00000 0 1842970.212 20499176.772 -15026148.787 10 0 60903 85500.00000 0 1023997.455 18671281.375 -17313684.898 99